Location: Aboncourt
(47.7710°N, 5.9826°E)
Time: 02:50:43
(UTC+00:00)

CZ-4C R/B - Pass Details

Date: 05 July 2020
Orbit: 632 x 1369 km, 63.4° (Epoch: 02 August)

Event Time Altitude Azimuth Distance (km) Brightness Sun altitude
Rises 23:24:25 0° 319° (NW) 3,713 6.4 -19.5°
Reaches altitude 10° 23:26:55 10° 324° (NW) 2,865 5.8 -19.5°
Maximum altitude 23:33:42 53° 41° (NE) 1,426 3.6 -19.5°
Drops below altitude 10° 23:41:36 10° 117° (ESE) 3,321 5.0 -19.6°
Sets 23:44:42 0° 122° (ESE) 4,346 5.6 -19.6°
